Theta_e
319 319 320 321 322 322 322 323 323 324 324 324 324 325 326 326 326 322 308 318 329 356 354 344 348 349 348 343 339 339 322 317 319 321 322 322 320 328 329 328 329 331 334 339 345
318 318 320 321 321 321 322 322 322 323 323 323 324 324 326 326 321 313 328 350 355 358 343 342 341 343 339 341 336 328 319 320 327 328 321 322 323 323 324 324 324 328 339 343 345
318 319 320 320 321 321 321 322 322 322 323 323 323 324 325 325 318 322 349 354 355 356 346 347 346 339 335 339 335 327 320 326 327 329 328 320 322 324 323 318 323 325 334 341 342
317 318 319 319 320 320 321 321 321 322 322 322 323 325 326 321 312 326 354 355 355 346 343 341 340 336 333 331 337 328 331 330 327 329 328 321 322 322 323 322 328 329 335 340 340
318 318 317 317 318 319 320 320 320 321 321 322 323 325 316 306 312 341 358 358 344 336 339 337 332 331 329 332 333 331 332 332 332 328 328 325 323 323 323 327 330 330 339 338 339
317 317 316 316 316 318 319 319 319 320 321 322 324 325 316 306 327 346 341 334 331 333 336 336 335 337 332 330 326 330 332 326 330 328 328 322 322 323 323 328 328 328 328 331 329
316 315 315 316 316 316 318 318 319 319 320 322 324 323 313 306 329 336 331 325 331 336 336 341 342 336 333 325 330 327 318 323 324 325 324 324 318 319 325 327 325 326 326 326 327
315 315 315 316 315 316 316 318 318 320 321 323 326 318 303 316 326 327 325 326 330 332 335 338 345 337 333 333 326 320 315 311 323 323 324 322 311 320 324 323 323 325 325 326 326
315 314 314 315 315 315 314 316 319 321 322 327 314 307 307 326 320 320 327 330 330 330 332 338 335 328 325 318 314 313 308 312 316 324 324 321 316 322 323 321 322 323 324 325 325
314 314 314 314 314 314 314 315 319 319 321 324 320 304 310 314 320 326 326 333 331 330 329 329 325 318 316 314 307 308 309 312 313 318 321 320 318 322 324 321 321 322 324 324 325
314 314 315 314 314 313 309 307 304 303 307 301 302 305 312 317 318 322 328 328 328 325 316 319 312 309 313 317 320 317 314 312 317 321 317 316 318 321 323 322 320 320 322 323 324
314 315 314 314 314 313 307 301 306 304 300 307 309 308 310 311 308 310 329 322 321 315 317 313 308 316 318 319 319 318 313 313 317 322 318 317 316 322 322 322 323 322 322 323 322
315 314 313 313 313 306 301 302 307 306 299 304 307 307 309 309 307 308 321 320 317 314 313 310 314 318 315 310 315 314 311 311 312 317 318 315 312 315 321 324 325 325 325 326 326
315 314 312 311 307 305 305 307 308 304 295 301 303 308 309 309 306 312 321 321 315 313 313 309 314 313 309 307 311 304 317 315 316 311 305 313 301 309 315 317 321 322 323 325 324
314 313 311 311 302 303 307 310 309 305 287 306 303 312 306 307 306 309 320 317 313 312 308 308 309 309 306 308 310 307 313 313 316 309 305 306 303 306 314 313 317 321 323 325 325
314 312 311 308 302 309 311 309 307 297 289 304 305 304 301 303 305 307 311 317 317 312 309 309 312 310 308 311 310 312 309 307 302 301 296 303 304 302 308 312 317 320 322 325 326
312 310 309 309 300 307 308 305 296 291 303 302 299 299 298 299 301 303 302 300 302 299 299 307 308 307 311 305 307 308 301 296 295 294 294 302 301 305 311 316 320 320 323 327 330
310 310 307 307 305 309 305 301 291 298 300 305 304 298 299 298 299 300 299 297 299 301 297 296 297 303 308 306 302 299 300 295 291 292 295 303 299 304 321 320 321 325 325 329 329
309 302 303 306 309 306 303 293 293 298 306 305 304 297 296 298 298 297 296 296 299 302 296 293 297 306 308 306 306 300 300 301 296 295 295 299 304 311 321 320 322 322 327 327 328
301 303 305 310 310 303 299 294 297 304 306 304 299 301 298 300 296 296 295 300 301 303 302 299 295 303 307 307 305 304 304 298 295 291 290 295 301 302 312 317 320 322 326 326 325
302 305 308 310 304 301 294 294 300 306 307 302 299 299 300 301 301 294 298 302 303 300 304 299 297 302 302 299 300 299 297 296 296 294 292 290 297 311 312 317 320 325 324 324 331
299 301 308 303 294 290 291 297 302 301 302 301 303 302 301 302 301 301 301 302 308 303 300 301 296 296 300 301 303 299 297 295 292 291 291 295 295 314 316 320 324 328 329 326 325
298 299 310 303 294 291 294 299 299 298 299 299 301 304 303 300 298 304 307 312 312 306 298 300 293 290 294 297 298 300 300 295 294 292 291 292 296 315 320 319 321 325 326 328 327
302 302 305 302 297 297 297 300 300 305 302 302 301 301 298 301 303 302 304 310 312 312 325 308 293 294 295 295 297 298 302 301 297 293 293 295 301 310 316 315 318 322 328 329 331
304 300 301 299 301 301 302 301 303 303 305 302 299 300 299 296 299 300 304 305 310 315 310 301 295 296 296 299 301 302 303 303 299 298 297 299 305 308 315 316 319 321 329 330 330
302 300 302 297 300 300 298 300 302 305 304 302 299 303 302 298 300 298 302 304 302 306 305 305 300 302 298 305 305 304 307 307 306 308 308 306 307 313 319 315 317 320 329 329 328
302 304 302 298 300 299 299 301 303 304 307 307 304 305 304 305 308 306 305 305 307 305 305 306 301 299 296 302 303 299 305 306 307 308 310 307 310 316 314 316 316 324 330 327 327
Wind_Speed
13 13 12 12 12 12 12 11 11 11 11 12 12 12 12 11 15 3 6 7 6 12 9 8 4 5 5 3 3 1 4 2 3 3 3 8 6 6 4 15 2 4 7 9 16
14 14 14 13 13 12 12 12 12 12 12 12 12 11 11 9 3 6 9 8 11 9 7 7 8 5 3 2 2 3 3 6 5 2 4 14 14 13 6 9 2 7 13 18 19
15 14 14 15 14 13 12 12 12 12 11 11 12 12 10 7 3 5 6 12 16 11 4 2 7 3 3 1 2 3 4 3 5 9 4 6 6 3 17 4 6 20 19 20 19
14 14 15 15 15 14 14 13 13 13 13 13 13 14 12 1 3 3 8 13 15 11 4 5 3 1 2 4 5 3 8 5 6 5 1 4 6 6 10 6 14 17 22 21 21
16 16 17 16 17 16 15 14 14 14 11 10 10 11 3 3 7 1 16 13 10 4 6 5 3 2 2 4 6 5 8 9 16 6 11 7 6 6 8 11 13 14 19 20 18
16 16 16 17 17 16 16 15 15 14 13 12 11 10 2 3 2 8 13 9 7 9 9 7 6 6 4 6 6 11 12 10 9 13 2 6 2 6 3 14 15 15 18 17 17
18 17 16 16 18 18 18 16 15 14 12 9 6 3 2 11 3 7 9 7 5 7 8 12 3 2 5 7 6 4 3 9 5 3 2 6 4 2 13 15 17 15 12 12 18
19 18 18 17 17 18 20 20 19 14 10 7 3 2 8 3 6 7 4 3 6 7 4 4 8 4 4 7 8 6 6 3 4 7 4 5 4 5 11 17 17 16 15 14 13
20 20 19 20 19 19 20 23 16 8 4 4 1 1 9 4 4 6 5 5 3 2 6 8 3 6 1 2 6 6 1 2 4 3 5 4 4 9 9 12 15 16 16 15 14
19 19 19 20 20 21 24 12 6 1 2 4 3 4 3 3 4 7 6 4 3 3 4 4 3 1 4 5 4 4 3 3 5 6 2 3 4 13 16 15 17 17 16 15 15
18 18 18 20 20 20 12 3 4 3 2 9 6 4 7 6 3 3 4 5 1 2 2 2 3 7 10 7 7 6 6 7 1 4 4 3 7 11 19 14 12 15 15 14 15
21 20 21 20 18 17 1 3 3 3 8 10 11 8 6 4 6 4 9 6 5 6 2 6 6 11 5 5 9 10 7 14 3 1 5 3 7 1 1 13 17 16 16 16 10
21 21 23 21 22 3 1 5 2 3 2 9 7 7 6 9 8 11 12 7 4 4 4 5 13 10 8 9 3 6 6 7 5 2 4 4 7 2 6 6 5 11 13 14 13
20 21 22 27 1 3 4 2 7 5 5 8 4 10 6 7 6 7 10 7 4 9 5 6 7 2 7 7 3 5 6 5 11 6 5 4 5 7 4 8 8 9 7 3 3
21 21 19 10 4 2 2 6 4 3 4 2 4 1 4 11 3 6 5 5 9 6 6 11 4 9 5 8 1 11 8 6 8 5 5 1 3 9 1 7 16 14 10 9 9
22 20 17 2 2 8 7 8 4 8 7 6 4 4 4 3 3 2 4 4 3 5 2 9 3 5 8 8 6 12 6 7 5 5 1 7 7 7 6 11 9 7 14 15 13
26 21 9 3 5 4 6 4 7 4 6 4 2 3 1 4 4 5 4 3 7 2 6 11 12 4 5 7 4 4 6 4 6 4 6 3 2 12 6 4 6 7 9 10 9
29 24 5 6 4 5 3 7 3 4 6 6 3 3 8 4 5 3 4 5 5 5 3 4 11 5 4 8 5 3 9 8 7 4 6 2 7 8 2 1 5 4 4 4 8
24 1 2 6 11 3 6 3 9 7 4 7 7 4 3 2 2 4 5 6 8 11 11 5 9 4 7 3 7 5 3 6 8 4 3 4 8 3 3 3 6 6 3 6 6
4 4 5 4 10 5 6 7 5 5 5 5 4 4 6 3 5 8 6 6 8 13 5 7 6 7 5 5 2 8 4 1 4 4 5 6 5 7 7 11 6 2 4 5 1
2 4 3 3 2 7 5 7 4 6 6 4 2 5 6 5 5 5 9 7 6 1 12 8 6 15 2 4 9 1 4 5 5 5 7 4 8 7 11 5 9 5 2 3 4
2 3 2 2 6 1 2 6 4 3 3 5 5 11 6 3 6 5 8 7 6 7 12 11 8 9 15 1 1 2 3 6 7 6 3 4 8 2 4 6 4 6 4 3 7
2 2 3 4 3 2 5 5 4 3 6 4 4 6 4 5 4 7 4 4 6 5 6 8 3 1 12 10 3 5 5 5 4 4 6 6 8 4 2 3 7 8 7 6 5
3 3 5 4 0 3 1 6 4 4 6 7 8 6 4 7 8 5 3 2 5 3 3 7 4 8 11 8 3 2 4 3 6 4 3 7 6 7 8 10 10 8 3 4 10
3 1 2 2 2 4 2 3 7 6 5 4 6 7 6 5 4 7 5 3 3 4 4 5 3 2 2 1 1 4 4 3 6 6 6 5 9 8 7 9 7 3 6 13 13
3 3 5 2 4 4 3 2 4 5 5 7 7 10 5 7 7 4 1 1 3 5 4 5 1 1 2 0 3 2 6 7 1 6 2 3 6 4 7 1 3 4 9 14 14
3 2 4 3 4 2 2 3 6 9 6 8 7 1 2 1 4 4 5 3 1 3 2 3 3 5 5 6 5 4 2 2 2 3 2 6 4 7 6 5 1 2 8 11 13
Wind_Direction
5 0 358 353 350 346 343 338 330 329 328 325 323 327 321 328 308 146 243 214 173 191 124 124 87 52 48 33 39 283 50 307 252 161 238 152 122 155 34 141 226 162 132 150 145
3 357 354 352 350 346 342 337 329 328 326 323 318 320 315 329 276 240 247 143 147 184 136 123 103 125 59 13 348 51 104 224 241 254 192 182 146 165 115 168 58 86 104 134 146
360 353 353 349 349 344 341 334 326 323 320 320 317 318 317 314 289 246 169 143 160 183 211 44 125 170 132 149 220 191 203 213 232 232 341 161 141 113 142 224 201 153 150 152 158
360 354 352 347 345 343 339 333 325 323 324 324 324 321 321 248 109 245 135 148 165 192 75 114 101 320 268 194 209 272 254 230 257 221 313 187 143 129 169 210 161 155 157 156 166
357 353 351 346 343 340 337 331 323 318 315 314 318 318 307 347 248 316 122 139 156 189 150 158 152 160 257 235 149 251 243 244 239 162 178 158 202 155 216 134 145 142 156 163 172
357 355 350 344 339 335 332 325 318 313 314 319 325 322 349 331 111 143 128 146 179 186 192 164 205 215 252 237 195 198 225 248 208 209 94 157 188 95 122 141 148 164 166 171 178
356 352 349 344 337 332 327 320 310 302 298 298 305 308 23 240 85 142 145 174 196 186 193 195 224 9 341 305 278 294 86 81 50 66 317 120 46 294 149 155 160 175 186 183 184
351 349 346 341 337 330 324 317 306 294 286 284 230 216 248 250 127 145 184 212 225 231 259 122 166 183 201 271 314 356 65 53 217 140 208 111 257 148 165 161 173 180 193 199 208
347 346 343 339 336 331 324 313 300 288 229 170 159 118 269 151 154 200 163 197 161 263 276 269 241 216 216 10 348 1 100 213 180 237 142 127 184 172 169 177 184 191 200 204 212
346 343 339 336 333 331 323 295 291 3 218 207 250 340 274 226 185 170 195 248 174 143 292 184 175 294 32 74 270 315 300 214 193 203 221 181 186 177 184 185 193 196 204 210 215
339 335 333 332 328 329 341 62 26 354 315 204 197 247 295 300 138 170 158 123 352 326 235 239 59 247 247 207 235 241 256 270 65 178 116 199 184 192 192 199 200 201 203 216 217
333 331 333 328 321 320 187 99 172 187 310 235 249 263 270 58 308 281 125 159 157 220 350 351 266 267 280 266 239 241 244 269 33 122 115 174 215 227 300 222 217 202 212 218 218
331 332 333 328 321 95 3 233 312 6 199 287 203 216 189 144 217 256 153 175 174 196 218 193 253 334 319 305 194 227 189 251 190 152 25 108 321 244 225 201 244 228 224 221 212
329 333 335 328 28 328 253 250 294 184 49 273 246 261 156 134 270 215 187 146 188 214 208 239 297 206 316 298 202 270 211 222 148 130 215 123 259 275 243 251 238 232 234 183 255
327 332 333 330 296 238 131 305 286 72 349 209 211 84 163 158 195 241 167 92 208 219 118 242 265 297 299 249 102 255 319 236 158 127 93 177 66 267 11 249 247 224 210 197 206
323 328 332 130 230 247 316 313 64 44 257 322 137 157 143 202 222 81 129 100 197 213 218 236 258 178 241 278 168 267 303 55 44 89 54 209 151 277 204 210 238 221 214 213 200
322 317 304 284 235 324 308 63 46 150 315 328 224 126 238 183 213 169 164 155 175 134 277 285 269 241 203 290 13 108 56 343 338 7 228 87 109 237 248 220 218 208 204 202 206
322 311 227 208 266 330 49 52 180 240 253 304 304 186 177 128 267 196 180 232 220 155 145 201 318 207 192 182 205 274 150 165 217 208 252 108 237 262 160 207 225 217 234 231 239
319 318 246 249 202 341 79 116 208 214 298 349 346 32 17 148 169 128 216 226 211 175 171 166 261 243 220 162 139 297 231 207 110 30 82 229 289 42 148 194 216 243 245 264 272
324 341 262 111 155 92 82 228 221 216 343 14 27 40 8 318 196 159 215 229 219 198 158 227 299 223 275 193 231 157 179 311 8 150 229 274 275 229 238 221 218 288 343 299 322
1 12 292 165 156 54 176 228 252 268 49 358 23 290 242 275 225 202 210 274 242 72 173 147 147 259 77 195 236 191 252 57 119 145 178 221 260 207 229 204 165 133 87 49 190
359 42 340 46 63 35 179 194 247 256 38 272 219 215 213 254 287 261 218 201 215 170 168 203 158 239 245 214 326 204 232 129 118 282 206 174 269 278 166 183 164 193 201 219 127
67 269 345 47 125 271 287 282 231 252 231 235 271 227 229 245 264 212 222 247 316 22 177 182 212 202 320 343 334 192 175 123 122 97 203 145 262 150 154 323 262 203 226 266 296
69 55 340 47 137 141 2 280 280 270 252 213 228 226 242 231 204 260 276 261 335 31 320 112 125 165 210 206 190 31 312 160 130 120 206 222 272 201 199 184 234 254 224 316 86
26 331 172 270 306 332 175 290 297 283 229 238 280 207 212 252 214 215 229 312 322 348 28 86 102 207 200 191 242 214 238 288 201 175 156 245 208 265 167 200 233 167 45 54 45
63 25 355 286 312 320 48 304 275 273 227 257 206 264 264 193 197 233 188 242 202 343 63 360 16 195 170 239 28 6 20 16 112 116 53 175 244 190 155 148 300 39 78 83 83
327 342 102 305 348 47 254 309 287 327 284 239 285 162 75 303 199 209 197 180 217 152 69 69 87 34 291 349 356 5 325 62 56 13 153 205 253 173 167 189 197 205 101 103 108